Roanoke, VA

7:57 AM EDT on April 21, 2018 (GMT -0400)
Roanoke Regional-Woodrum

Weather History for KROA - November, 2013

Change the Weather History Date:

Wednesday, November 6, 2013

  Actual Average Record
Temperature  
Mean Temperature 57 °F 52 °F  
Max Temperature 68 °F 63 °F 82 °F (2015)
Min Temperature 46 °F 40 °F 19 °F (1991)
Degree Days  
Heating Degree Days 8 14  
Month to date heating degree days 81 77  
Since 1 July heating degree days 329 374  
Cooling Degree Days 0 0  
Month to date cooling degree days 2 0  
Year to date cooling degree days 1227 1207  
Growing Degree Days 7 (Base 50)    
Moisture  
Dew Point 45 °F    
Average Humidity 71    
Maximum Humidity 93    
Minimum Humidity 48    
Precipitation  
Precipitation 0.00 in 0.11 in 1.53 in (1938)
Month to date precipitation 0.04 0.70  
Year to date precipitation 46.02 35.61  
Snow  
Snow 0.00 in - - ()
Month to date snowfall 0.0  
Since 1 July snowfall 0.0  
Since 1 September snowfall 0.0  
Snow Depth 0.00 in    
Sea Level Pressure  
Sea Level Pressure 30.31 in    
Wind  
Wind Speed 3 mph (SE)    
Max Wind Speed 13 mph    
Max Gust Speed 17 mph    
Visibility 10 miles    
Events      
T = Trace of Precipitation, MM = Missing Value Source: NWS Daily Summary

Daily Weather History Graph

Daily Weather History Graph

Search for Another Location

Airport or City:

Astronomy

Nov. 06, 2013 Rise Set
Actual Time 6:49 AM EST 5:16 PM EST
Civil Twilight 6:22 AM EST 5:43 PM EST
Nautical Twilight 5:51 AM EST 6:15 PM EST
Astronomical Twilight 5:20 AM EST 6:45 PM EST
Moon 10:01 AM EST (11/6) 8:20 PM EST (11/6)
Length of Visible Light 11h 21m
Length of Day
10h 26m
Waxing Crescent, 13% of the Moon is Illuminated
Nov 6
Waxing Crescent
Nov 10
First Quarter
Nov 17
Full
Nov 25
Last Quarter
Dec 2
New

Hourly Weather History & Observations

Time (EST) Temp. Dew Point Humidity Pressure Visibility Wind Dir Wind Speed Gust Speed Precip Events Conditions
12:54 AM 46.9 °F 42.1 °F 83% 30.48 in 10.0 mi ESE 5.8 mph - N/A   Overcast
1:54 AM 46.9 °F 43.0 °F 86% 30.46 in 10.0 mi Calm Calm - N/A   Overcast
2:54 AM 46.9 °F 43.0 °F 86% 30.45 in 10.0 mi Calm Calm - N/A   Overcast
3:54 AM 46.9 °F 44.1 °F 90% 30.43 in 10.0 mi Calm Calm - N/A   Overcast
4:54 AM 46.9 °F 44.1 °F 90% 30.43 in 10.0 mi Calm Calm - N/A   Overcast
5:54 AM 48.0 °F 44.1 °F 86% 30.42 in 10.0 mi Calm Calm - N/A   Overcast
6:54 AM 48.0 °F 44.1 °F 86% 30.41 in 10.0 mi Calm Calm - N/A   Overcast
7:54 AM 48.0 °F 44.1 °F 86% 30.41 in 9.0 mi Calm Calm - N/A   Mostly Cloudy
8:54 AM 48.9 °F 45.0 °F 86% 30.41 in 9.0 mi Calm Calm - N/A   Mostly Cloudy
9:54 AM 52.0 °F 45.0 °F 77% 30.40 in 10.0 mi Calm Calm - N/A   Mostly Cloudy
10:54 AM 57.0 °F 46.0 °F 67% 30.38 in 10.0 mi Calm Calm - N/A   Mostly Cloudy
11:54 AM 59.0 °F 45.0 °F 60% 30.35 in 10.0 mi SE 3.5 mph - N/A   Scattered Clouds
12:54 PM 64.0 °F 46.0 °F 52% 30.30 in 10.0 mi ESE 6.9 mph - N/A   Partly Cloudy
1:54 PM 66.0 °F 46.9 °F 50% 30.26 in 10.0 mi SE 9.2 mph - N/A   Partly Cloudy
2:54 PM 66.0 °F 46.9 °F 50% 30.23 in 10.0 mi ESE 5.8 mph 16.1 mph N/A   Scattered Clouds
3:54 PM 66.9 °F 46.9 °F 49% 30.21 in 10.0 mi South 10.4 mph - N/A   Mostly Cloudy
4:54 PM 64.0 °F 46.9 °F 54% 30.20 in 10.0 mi SSE 6.9 mph - N/A   Mostly Cloudy
5:54 PM 62.1 °F 48.0 °F 60% 30.20 in 10.0 mi ESE 5.8 mph - N/A   Mostly Cloudy
6:54 PM 60.1 °F 48.0 °F 64% 30.20 in 10.0 mi ESE 4.6 mph - N/A   Mostly Cloudy
7:54 PM 59.0 °F 46.9 °F 64% 30.19 in 10.0 mi Calm Calm - N/A   Mostly Cloudy
8:54 PM 59.0 °F 48.0 °F 67% 30.17 in 10.0 mi SE 5.8 mph - N/A   Mostly Cloudy
9:54 PM 55.0 °F 46.9 °F 74% 30.17 in 10.0 mi Calm Calm - N/A   Clear
10:54 PM 52.0 °F 46.9 °F 83% 30.14 in 10.0 mi Calm Calm - N/A   Clear
11:54 PM 50.0 °F 46.0 °F 86% 30.12 in 10.0 mi Calm Calm - N/A   Clear